Location: Drocourt
(49.0571°N, 1.7669°E)
Time: 15:45:25
(UTC+00:00)

SR - Pass Details

Date: 28 April 2024
Orbit: 579 x 860 km, 66.7° (Epoch: 22 May)

Event Time Altitude Azimuth Distance (km) Brightness Sun altitude
Rises 03:02:58 0° 290° (WNW) 3,199 ? -13.7°
Reaches altitude 10° 03:07:12 10° 322° (NW) 2,197 ? -13.2°
Maximum altitude 03:08:55 12° 343° (NNW) 2,057 ? -13.0°
Drops below altitude 10° 03:10:36 10° 3° (N) 2,134 ? -12.8°
Sets 03:14:32 0° 37° (NE) 2,976 ? -12.3°
